www.pogodaiklimat.ru

Погода и климат >> Архив погоды >> Россия >> Мурманская область >> Сосновец Остров


АРХИВ ПОГОДЫ на Сосновец Острове

Время (UTC), дата Ветер
(напр.,м/с)
 
Видим.   Явления Облачность Т
(С)
Тd
(С)
f
(%)
Тe
(С)
Тes
(С)
Комфортность P
(гПа)
Po
(гПа)
Тmin
(С)
Tmax
(С)
R
(мм)
R24
(мм)
S
(см)
12 17.01 СЗ 6 20 км 10/3 600 м
[Sc Ac und]
-6.3 -8.0 88 -14 -14 987.0 984.8
15 17.01 СЗ 6 20 км 10/0
[Ac und]
-6.4 -8.2 87 -14 -14 987.0 984.8 -4.9
18 17.01 С 5 4000 м слаб. снег 10/8 300 м
[St As op]
-6.9 -8.4 89 -14 -14 987.0 984.8
21 17.01 С 5 20 км 10/0
[Ac und]
-6.4 -7.8 90 -14 -14 987.3 985.1
03 18.01 СВ 11-14
{14}
4000 м слаб. снег {метель} 10/0 300 м
[As op]
-3.3 -5.8 83 -13 -13 987.5 985.3 -7.1 0.4 28
06 18.01 СВ 13
{18}
4000 м слаб. снег {метель} 10/0 300 м
[As op]
-3.5 -5.8 84 -14 -14 988.2 986.0
09 18.01 СВ 13
{17}
4000 м слаб. снег {метель} 10/0 300 м
[As op]
-4.0 -5.8 87 -14 -14 989.4 987.2
12 18.01 В 13
{17}
20 км позёмок {снег} 10/10 300 м
[Sc]
-4.6 -8.4 75 -15 -15 991.3 989.0
15 18.01 СВ 17
{20}
4000 м слаб. ливневой снег {метель} 10/10 300 м
[Cb cap]
-5.4 -8.6 78 -17 -17 992.5 990.3 -3.3 0.9
18 18.01 В 13
{21}
20 км позёмок {ливн. осадки} 8/8 300 м
[Sc]
-5.6 -9.4 75 -16 -16 994.8 992.5
21 18.01 В 11
{17}
20 км позёмок 8/8 300 м
[Sc]
-6.2 -9.5 77 -16 -16 996.8 994.6
00 19.01 В 10
{15}
20 км {метель} 8/8 300 м
[Sc]
-6.9 -10.5 75 -17 -17 998.3 996.0
03 19.01 В 9
{13}
20 км 8/8 600 м
[Sc]
-7.1 -10.0 80 -17 -17 999.3 997.0 -7.3 0.2 30
06 19.01 В 9-11
{13}
20 км 3/3 600 м
[Sc]
-7.6 -11.3 75 -17 -17 1000.3 998.1 -7.6
09 19.01 В 7
{12}
20 км 3/3 600 м
[Sc Ac trans]
-8.2 -11.8 75 -17 -17 1001.4 999.1
12 19.01 В 7
{10}
20 км 3/0
[Ac trans]
-8.2 -13.1 68 -17 -17 1001.8 999.5
15 19.01 В 8-11
{11}
20 км 3/0
[Ac trans]
-7.6 -11.0 77 -17 -17 1002.1 999.8 -7.0
18 19.01 В 8
{11}
20 км 3/0
[Ac trans]
-8.8 -10.6 87 -18 -18 1002.5 1000.2
21 19.01 В 8
{11}
20 км ясно -9.2 -11.6 83 -19 -19 1002.8 1000.5
00 20.01 В 6 20 км ясно -13.0 -6 -6 1003.1 1000.8
03 20.01 В 5 20 км 8/0
[Ac trans]
-11.5 -11.8 98 -19 -19 1002.8 1000.5 -12.1
06 20.01 В 7 20 км 8/0
[Ac trans]
-12.2 -13.7 89 -22 -22 1003.1 1000.8 -12.7
09 20.01 В 5 20 км 4/4 600 м
[Sc]
-12.3 -13.7 89 -20 -20 1004.0 1001.7
12 20.01 СВ 6 4000 м слаб. ливневой снег 10/10 300 м
[Cb cap]
-8.8 -10.4 88 -17 -17 1003.3 1001.0
15 20.01 В 6 4000 м слаб. снег 10/0 300 м
[As op]
-8.2 -10.0 87 -17 -17 1002.6 1000.3 -7.8 0.3
18 20.01 В 5 4000 м слаб. снег 10/0 300 м
[As op]
-8.4 -9.9 89 -16 -16 1002.3 1000.0
21 20.01 В 4 4000 м слаб. снег 10/8 300 м
[Frnb As op]
-8.9 -10.4 89 -16 -16 1002.9 1000.6
00 21.01 штиль 0 4000 м слаб. снег 10/8 300 м
[Frnb As op]
-9.2 -10.8 88 -10 -10 1002.9 1000.6
03 21.01 З 1 4000 м слаб. снег 10/4 300 м
[Frnb As op]
-8.3 -9.7 90 -11 -11 1002.7 1000.4 -9.6 0.9
06 21.01 СЗ 4 20 км {снег} 10/10 300 м
[St]
-7.9 -9.8 86 -15 -15 1002.3 1000.0
09 21.01 СЗ 9
{11}
20 км 9/3 300 м
[St Ac As]
-10.4 -13.4 79 -21 -21 1002.4 1000.1
12 21.01 СЗ 8
{11}
20 км позёмок {ливн. осадки} 10/10 300 м
[Cb cap]
-9.3 -12.9 75 -19 -19 1002.0 999.7
15 21.01 СЗ 10
{12}
20 км {метель} 1/0
[Ac trans]
-11.7 -14.0 83 -23 -23 1001.4 999.0 -7.0 0.2
18 21.01 СЗ 9
{13}
20 км {метель} ясно -11.2 -13.6 82 -22 -22 1001.0 998.7
21 21.01 СЗ 7
{14}
20 км ясно -11.8 -14.6 80 -21 -21 1001.6 999.3
00 22.01 З 4
{10}
20 км ясно -13.1 -15.2 84 -20 -20 1001.0 998.7
03 22.01 З 3
{10}
20 км ясно -11.8 -14.1 83 -18 -18 1000.5 998.2 -13.5 31
06 22.01 З 2 20 км 4/3 300 м
[Sc Ac trans]
-11.2 -13.3 84 -16 -16 999.9 997.6
09 22.01 СЗ 3 20 км 8/8 600 м
[Sc]
-12.1 -14.1 85 -18 -18 1000.6 998.3
12 22.01 штиль 0 20 км 8/8 600 м
[Sc]
-9.9 -11.4 89 -10 -10 1000.9 998.6
15 22.01 СЗ 4 20 км 8/8 600 м
[Sc]
-8.1 -9.6 89 -15 -15 1001.3 999.0 -7.5
18 22.01 СВ 3 4000 м слаб. ливневой снег 9/9 300 м
[Cb cap Ac und]
-6.0 -7.4 90 -12 -12 1002.0 999.7
21 22.01 С 4 20 км 8/8 300 м
[Sc]
-8.9 -10.0 92 -16 -16 1002.8 1000.5
00 23.01 СЗ 3 20 км 8/8 300 м
[Sc]
-11.1 -12.2 92 -17 -17 1003.5 1001.2
03 23.01 СЗ 3 20 км 8/8 300 м
[Sc]
-10.4 -11.6 91 -16 -16 1003.8 1001.5 -12.0 0.2 31
06 23.01 СЗ 1 4000 м дымка 4/4 300 м
[Sc]
-14.3 -16.0 87 -17 -17 1004.0 1001.7 -14.4
09 23.01 штиль 0 20 км 9/9 300 м
[Sc]
-14.7 -16.3 88 -15 -15 1004.8 1002.5
12 23.01 штиль 0 20 км 4/3 300 м
[Sc Ci fib]
-14.2 -15.9 87 -14 -14 1004.8 1002.4
15 23.01 штиль 0 20 км 8/8 300 м
[Sc]
-12.3 -13.7 89 -12 -12 1005.1 1002.8 -9.9
18 23.01 С 6
{10}
4000 м слаб. ливневой снег 10/10 300 м
[Cb cap]
-8.4 -9.6 91 -17 -17 1005.3 1003.0
21 23.01 С 5
{10}
20 км {ливн. осадки} 8/8 300 м
[Sc]
-8.4 -9.6 91 -16 -16 1006.2 1003.9
00 24.01 СЗ 7 20 км {ливн. осадки} 10/10 300 м
[Sc]
-10.2 -11.7 89 -19 -19 1007.4 1005.1
03 24.01 СЗ 7 20 км 10/10 300 м
[Sc]
-10.7 -12.5 87 -20 -20 1007.5 1005.2 -12.3 0.2 31
06 24.01 СЗ 10
{11}
20 км 9/9 600 м
[Sc]
-10.1 -12.0 86 -21 -21 1008.1 1005.8
09 24.01 СЗ 6
{11}
20 км 6/6 600 м
[Sc]
-10.1 -11.9 87 -19 -19 1009.2 1006.9

 

Местоположение метеостанции Сосновец Остров (Мурманская область, Россия): широта 66.48 долгота 40.68 высота над уровнем моря 18 м.

В архиве по умолчанию представлена погода на Сосновец Острове за последнюю неделю. Архивные данные за месяц целиком и за предыдущие месяцы, начиная с января 2011 года, Вы можете получить, выбрав интересующий диапазон дат из раскрывающегося списка и нажав кнопку "Ввод!".


*Определитесь, кто Вы:
робот инопланетянин человек

Внимание! Время в таблицах - всемирное. Для получения местного времени необходимо прибавить поправку, которая равна 3 ч.

Смотрите также архив погоды в соседних городах и на ближайших метеорологических станциях:

Погода в Пялице (Мурманская область, Россия) (61 км)
Погода на Моржовец Острове (Архангельская область, Россия) (84 км)
Погода в Каневке (Мурманская область, Россия) (85 км)
Погода в Абрамовском маяке (Архангельская область, Россия) (115 км)
Погода в Зимнегорском Маяке (Архангельская область, Россия) (121 км)
Погода в Кепино (Архангельская область, Россия) (133 км)
Погода на Чаваньга реке (Мурманская область, Россия) (138 км)
Погода в Мезене (Архангельская область, Россия) (173 км)
Погода в Неси (Ненецкий АО, Россия) (178 км)
Погода в Иоканьге (Мурманская область, Россия) (182 км)

Пояснения к столбцам:

Ветер - указаны скорость ветра в м/с - средняя за 10 мин, порывы в срок и между сроками (в фигурных скобках) и направление, откуда дует ветер: С - северный, СВ - северо-восточный, В - восточный, ЮВ - юго-восточный, Ю - южный, ЮЗ - юго-западный, З - западный, СЗ - северо-западный.
Видимость - горизонтальная дальность видимости в метрах или километрах. При видимости от 1 до 10 км при отсутствии осадков обычно наблюдается дымка, при ухудшении видимости до 1 км и менее - туман. В сухую погоду видимость может ухудшаться дымом, пылью или мглою.
Явления - указаны атмосферные явления, наблюдавшиеся в срок или в последний час перед сроком; фигурными скобками обозначены явления, наблюдавшиеся между сроками (за 1-3 часа до срока); квадратными скобками обозначены град или гололедные отложения с указанием их диаметра в мм.
Облачность - указаны через наклонную черту общая и нижняя облачность в баллах и высота нижней границы облаков в метрах; квадратными скобками обозначены формы облаков: Ci - перистые, Cs - перисто-слоистые, Cc - перисто-кучевые, Ac - высококучевые, As - высокослоистые, Sc - слоисто-кучевые, Ns - слоисто-дождевые, Cu - кучевые, Cb - кучево-дождевые. Подробнее классификацию облаков см. в Атласе облаков (PDF).
T - Температура воздуха - температура, измеренная на высоте 2 м над землей.
Td - Температура точки росы - температура, при понижении до которой содержащийся в воздухе водяной пар достигнет насыщения.
f - Относительная влажность воздуха - влажноcть воздуха, измеренная на высоте 2 м над землей.
Te - Эффективная температура - температура, которую ощущает одетый по сезону человек в тени. Характеристика душности погоды. При расчете учитывается влияние влажности воздуха и скорости ветра на теплоощущения человека.
Tes - Эффективная температура на солнце - температура, которую ощущает человек, с поправкой на солнечный нагрев. Характеристика знойности погоды. Зависит от высоты солнца над горизонтом, облачности и скорости ветра. Ночью, в пасмурную погоду, а также при ветре 12 м/с и более поправка равна нулю.
P - Атмосферное давление - приведенное к уровню моря атмосферное давление.
Po - Атмосферное давление - измеренное на уровне метеостанции атмосферное давление.
Tmin - Минимальная температура - минимум температуры воздуха на высоте 2 м над землей.
Tmax - Максимальная температура - максимум температуры воздуха на высоте 2 м над землей.
R - Количество осадков - Количество выпавших осадков за период времени, мм. При наведении курсора мыши на число - период времени, за который выпало указанное количество осадков.
R24 - Количество осадков - Количество выпавших осадков за 24 часа, мм.
S - Снежный покров - Высота снежного покрова, см. При наведении курсора мыши на число - состояние снежного покрова и степень покрытия местности в баллах.